contact:dominique.lefevre@mio.osupytheas.fr, maurice.libes@osupytheas.fr, didier.mallarino@osupytheas.fr
Project:EMSO http://www.emso-fr.org/EMSO-France
Depth: 2436.0 m
Title:EMSO Ligure Ouest : Data MII capteur AQUADOPP
Date,Latitude,Longitude,X_East,Y_North,Z_Up,Amplitude_X,Amplitude_Y,Amplitude_Z,Batterie,SoundSpeed,Heading,Pitch,Roll,Pressure,TIS,Speed,Direction
, degrees North, degrees East, m.s-1, m.s-1,m.s-1, 1, 1, 1, Volt, m.s-1, degree, degree, degree, dbar, degree_C, m.s-1, degree
2022-08-19T00:04:03,42.805,6.029,0.009,0.005,-0.006,103.0,102.0,102.0,13.4,1505.2,330.2,-0.7,1.8,2471.012,13.29,0.01,60.9
2022-08-19T00:07:03,42.805,6.029,-0.029,0.007,-0.018,102.0,102.0,100.0,13.4,1505.2,319.0,-0.8,1.8,2470.978,13.29,0.029,283.6
2022-08-19T00:10:03,42.805,6.029,-0.016,0.015,0.019,102.0,103.0,101.0,13.4,1505.2,317.3,-0.8,1.8,2471.0,13.29,0.021,313.1
2022-08-19T00:13:03,42.805,6.029,-0.007,0.023,-0.003,102.0,102.0,101.0,13.4,1505.2,328.3,-0.7,1.8,2471.022,13.29,0.024,343.1
2022-08-19T00:16:03,42.805,6.029,0.001,0.005,0.013,102.0,103.0,101.0,13.4,1505.2,327.4,-0.7,1.8,2470.973,13.29,0.005,11.3
2022-08-19T00:19:03,42.805,6.029,-0.007,0.004,-0.028,102.0,103.0,101.0,13.3,1505.2,320.5,-0.8,1.8,2470.994,13.29,0.008,299.7
2022-08-19T00:22:03,42.805,6.029,0.029,0.011,0.037,103.0,102.0,103.0,13.3,1505.2,322.0,-0.7,1.8,2470.992,13.29,0.031,69.2
2022-08-19T00:25:03,42.805,6.029,0.002,0.003,-0.035,102.0,102.0,102.0,13.3,1505.2,326.9,-0.7,1.8,2470.984,13.29,0.003,33.7
2022-08-19T00:28:03,42.805,6.029,-0.019,0.006,-0.005,103.0,102.0,103.0,13.3,1505.2,326.1,-0.7,1.8,2470.992,13.29,0.019,287.5
2022-08-19T00:31:03,42.805,6.029,-0.007,0.013,-0.007,102.0,103.0,101.0,13.4,1505.2,324.8,-0.7,1.8,2470.964,13.29,0.014,331.7
2022-08-19T00:34:03,42.805,6.029,-0.005,0.021,0.043,102.0,102.0,101.0,13.4,1505.2,330.6,-0.8,1.8,2470.972,13.29,0.021,346.6
2022-08-19T00:37:03,42.805,6.029,-0.007,0.004,-0.002,102.0,102.0,101.0,13.3,1505.2,321.8,-0.8,1.8,2470.951,13.29,0.008,299.7
2022-08-19T00:40:03,42.805,6.029,0.005,-0.002,0.006,102.0,102.0,100.0,13.3,1505.2,333.9,-0.7,1.8,2470.957,13.29,0.005,111.8
2022-08-19T00:43:03,42.805,6.029,-0.009,0.012,-0.009,102.0,103.0,101.0,13.3,1505.2,328.6,-0.8,1.8,2470.97,13.29,0.015,323.1
2022-08-19T00:46:03,42.805,6.029,-0.015,0.026,0.001,102.0,103.0,101.0,13.4,1505.2,323.4,-0.8,1.8,2470.955,13.29,0.03,330.0
2022-08-19T00:49:03,42.805,6.029,-0.005,0.021,-0.003,103.0,104.0,100.0,13.4,1505.2,329.7,-0.7,1.8,2470.987,13.29,0.021,346.6
2022-08-19T00:52:03,42.805,6.029,-0.006,0.013,0.009,102.0,104.0,101.0,13.3,1505.2,324.5,-0.8,1.8,2470.961,13.29,0.014,335.2
2022-08-19T00:55:03,42.805,6.029,-0.009,0.01,0.007,103.0,103.0,100.0,13.4,1505.2,320.4,-0.7,1.8,2470.975,13.29,0.013,318.0
2022-08-19T00:58:03,42.805,6.029,-0.022,0.029,0.004,102.0,102.0,102.0,13.4,1505.2,331.7,-0.8,1.8,2470.972,13.29,0.036,322.8
2022-08-19T01:04:03,42.805,6.029,-0.039,-0.002,-0.04,102.0,104.0,102.0,13.4,1505.2,324.4,-0.8,1.8,2471.023,13.29,0.039,267.1
2022-08-19T01:07:03,42.805,6.029,-0.013,0.008,0.015,102.0,103.0,101.0,13.4,1505.2,330.2,-0.8,1.8,2470.993,13.29,0.015,301.6
2022-08-19T01:10:03,42.805,6.029,-0.007,0.023,-0.023,103.0,104.0,100.0,13.4,1505.2,319.0,-0.8,1.8,2470.979,13.29,0.024,343.1
2022-08-19T01:13:03,42.805,6.029,-0.001,-0.007,-0.021,102.0,104.0,100.0,13.4,1505.2,335.0,-0.8,1.8,2470.96,13.29,0.007,188.1
2022-08-19T01:16:03,42.805,6.029,-0.024,0.003,-0.028,102.0,103.0,100.0,13.3,1505.2,329.4,-0.8,1.8,2471.005,13.29,0.024,277.1
2022-08-19T01:19:03,42.805,6.029,-0.016,-0.002,-0.007,102.0,104.0,100.0,13.4,1505.2,333.1,-0.7,1.8,2470.96,13.29,0.016,262.9
2022-08-19T01:22:03,42.805,6.029,-0.002,0.037,-0.002,103.0,102.0,100.0,13.4,1505.2,331.2,-0.7,1.9,2470.979,13.29,0.037,356.9
2022-08-19T01:25:03,42.805,6.029,-0.012,0.001,0.037,102.0,102.0,100.0,13.3,1505.2,319.9,-0.8,1.8,2470.98,13.29,0.012,274.8
2022-08-19T01:28:03,42.805,6.029,-0.03,0.018,0.003,102.0,102.0,101.0,13.3,1505.2,328.6,-0.7,1.8,2470.964,13.29,0.034,301.0
2022-08-19T01:31:03,42.805,6.029,-0.015,0.014,-0.001,102.0,104.0,99.0,13.4,1505.2,322.3,-0.8,1.8,2470.974,13.29,0.02,313.0
2022-08-19T01:34:03,42.805,6.029,0.004,0.023,0.007,101.0,104.0,101.0,13.4,1505.2,324.8,-0.8,1.8,2470.975,13.29,0.023,9.9
2022-08-19T01:37:03,42.805,6.029,-0.006,0.01,-0.023,102.0,102.0,101.0,13.4,1505.2,325.8,-0.8,1.8,2470.958,13.29,0.011,329.0
2022-08-19T01:40:03,42.805,6.029,-0.013,0.007,0.019,101.0,103.0,101.0,13.4,1505.2,319.8,-0.8,1.8,2470.969,13.29,0.014,298.3
2022-08-19T01:43:03,42.805,6.029,-0.017,0.001,0.007,104.0,103.0,101.0,13.4,1505.2,329.9,-0.8,1.8,2470.972,13.29,0.017,273.4
2022-08-19T01:46:03,42.805,6.029,0.001,0.004,-0.004,103.0,103.0,100.0,13.4,1505.2,326.3,-0.8,1.8,2470.901,13.29,0.004,14.0
2022-08-19T01:49:03,42.805,6.029,-0.02,0.011,0.024,102.0,103.0,101.0,13.4,1505.2,324.7,-0.8,1.8,2470.944,13.29,0.022,298.8
2022-08-19T01:52:03,42.805,6.029,0.001,0.011,0.008,102.0,103.0,101.0,13.3,1505.2,321.6,-0.8,1.8,2470.943,13.29,0.011,5.2
2022-08-19T01:55:03,42.805,6.029,0.009,0.003,0.023,102.0,103.0,100.0,13.4,1505.2,318.6,-0.8,1.8,2470.939,13.29,0.009,71.6
2022-08-19T01:58:03,42.805,6.029,-0.021,0.016,0.0,102.0,103.0,100.0,13.4,1505.2,332.0,-0.8,1.8,2470.974,13.29,0.026,307.3
2022-08-19T02:04:03,42.805,6.029,-0.015,0.01,0.015,100.0,103.0,101.0,13.4,1505.2,324.2,-0.8,1.8,2471.001,13.29,0.018,303.7
2022-08-19T02:07:03,42.805,6.029,-0.006,-0.003,-0.007,102.0,102.0,101.0,13.3,1505.2,320.4,-0.8,1.8,2470.982,13.29,0.006,243.4
2022-08-19T02:10:03,42.805,6.029,-0.005,0.005,0.015,102.0,101.0,101.0,13.4,1505.2,329.5,-0.8,1.8,2470.98,13.29,0.007,315.0
2022-08-19T02:13:03,42.805,6.029,-0.009,0.016,-0.007,103.0,102.0,101.0,13.3,1505.2,327.8,-0.8,1.8,2470.972,13.29,0.018,330.6
2022-08-19T02:16:03,42.805,6.029,0.01,0.003,-0.009,103.0,102.0,101.0,13.3,1505.2,322.8,-0.8,1.8,2470.962,13.29,0.01,73.3
2022-08-19T02:19:03,42.805,6.029,-0.007,0.01,-0.003,101.0,103.0,101.0,13.4,1505.2,326.9,-0.7,1.8,2470.956,13.29,0.012,325.0
2022-08-19T02:22:03,42.805,6.029,-0.003,-0.016,-0.028,101.0,102.0,101.0,13.4,1505.2,327.6,-0.7,1.8,2470.977,13.29,0.016,190.6
2022-08-19T02:25:03,42.805,6.029,0.004,0.018,0.025,103.0,102.0,101.0,13.3,1505.2,328.6,-0.7,1.8,2470.941,13.29,0.018,12.5
2022-08-19T02:28:03,42.805,6.029,0.002,0.008,-0.02,101.0,104.0,100.0,13.4,1505.2,322.6,-0.7,1.8,2470.913,13.29,0.008,14.0
2022-08-19T02:31:03,42.805,6.029,0.006,0.026,0.034,103.0,102.0,100.0,13.3,1505.2,324.3,-0.8,1.8,2470.942,13.29,0.026,13.0
2022-08-19T02:34:03,42.805,6.029,-0.02,0.004,-0.004,102.0,101.0,101.0,13.4,1505.2,319.5,-0.7,1.8,2470.909,13.29,0.02,281.3
2022-08-19T02:37:03,42.805,6.029,-0.018,-0.007,-0.019,102.0,102.0,100.0,13.4,1505.2,324.5,-0.7,1.8,2470.924,13.29,0.019,248.8
2022-08-19T02:40:03,42.805,6.029,-0.014,0.024,-0.009,103.0,103.0,100.0,13.3,1505.2,330.6,-0.8,1.8,2470.982,13.29,0.027,329.7
2022-08-19T02:43:03,42.805,6.029,0.011,0.016,-0.001,102.0,102.0,99.0,13.4,1505.2,317.2,-0.8,1.8,2470.91,13.29,0.019,34.5
2022-08-19T02:46:03,42.805,6.029,-0.007,0.005,0.004,101.0,102.0,100.0,13.4,1505.2,324.9,-0.7,1.8,2470.919,13.29,0.008,305.5
2022-08-19T02:49:03,42.805,6.029,-0.002,0.009,-0.008,102.0,101.0,100.0,13.4,1505.2,326.7,-0.8,1.8,2470.944,13.29,0.009,347.5
2022-08-19T02:52:03,42.805,6.029,-0.029,0.028,-0.001,102.0,102.0,100.0,13.3,1505.2,327.6,-0.8,1.8,2470.909,13.29,0.04,314.0
2022-08-19T02:55:03,42.805,6.029,-0.022,0.023,0.001,101.0,102.0,101.0,13.4,1505.2,318.0,-0.7,1.8,2470.906,13.29,0.031,316.3
2022-08-19T02:58:03,42.805,6.029,0.021,0.011,0.007,101.0,101.0,101.0,13.4,1505.2,328.7,-0.8,1.8,2470.936,13.29,0.023,62.4
2022-08-19T03:04:03,42.805,6.029,-0.01,0.017,0.011,103.0,102.0,101.0,13.3,1505.2,331.4,-0.7,1.8,2470.932,13.29,0.019,329.5
2022-08-19T03:07:03,42.805,6.029,-0.002,0.014,0.013,104.0,102.0,101.0,13.3,1505.2,323.5,-0.8,1.8,2470.977,13.29,0.014,351.9
2022-08-19T03:10:03,42.805,6.029,-0.008,0.027,0.016,102.0,102.0,100.0,13.4,1505.2,333.9,-0.8,1.8,2470.903,13.29,0.028,343.5
2022-08-19T03:13:03,42.805,6.029,-0.015,0.019,-0.002,102.0,102.0,101.0,13.4,1505.2,324.3,-0.8,1.8,2470.964,13.29,0.024,321.7
2022-08-19T03:16:03,42.805,6.029,0.003,0.009,0.018,103.0,103.0,100.0,13.4,1505.2,321.6,-0.7,1.8,2470.915,13.29,0.009,18.4
2022-08-19T03:19:03,42.805,6.029,-0.021,0.024,-0.003,103.0,102.0,101.0,13.4,1505.2,323.5,-0.8,1.8,2470.908,13.29,0.031,318.8
2022-08-19T03:22:03,42.805,6.029,-0.01,0.015,-0.024,102.0,102.0,100.0,13.4,1505.2,319.7,-0.8,1.8,2470.916,13.29,0.018,326.3
2022-08-19T03:25:03,42.805,6.029,-0.021,0.015,0.009,102.0,102.0,100.0,13.4,1505.2,327.4,-0.8,1.8,2470.923,13.29,0.025,305.5
2022-08-19T03:28:03,42.805,6.029,-0.003,-0.004,0.005,102.0,102.0,99.0,13.4,1505.2,322.5,-0.8,1.8,2470.911,13.29,0.005,216.9
2022-08-19T03:31:03,42.805,6.029,-0.035,0.028,-0.011,102.0,102.0,100.0,13.3,1505.2,323.3,-0.8,1.8,2470.905,13.29,0.044,308.7
2022-08-19T03:34:03,42.805,6.029,-0.013,0.015,-0.003,103.0,102.0,100.0,13.3,1505.2,326.0,-0.8,1.8,2470.892,13.29,0.019,319.1
2022-08-19T03:37:03,42.805,6.029,0.001,0.013,0.002,102.0,102.0,101.0,13.3,1505.2,328.3,-0.7,1.8,2470.932,13.29,0.013,4.4
2022-08-19T03:40:03,42.805,6.029,-0.013,0.017,0.0,101.0,103.0,101.0,13.4,1505.2,319.1,-0.8,1.8,2470.905,13.29,0.021,322.6
2022-08-19T03:43:03,42.805,6.029,-0.027,0.026,-0.011,102.0,101.0,101.0,13.4,1505.2,321.5,-0.7,1.8,2470.896,13.29,0.037,313.9
2022-08-19T03:46:03,42.805,6.029,-0.026,0.032,0.008,101.0,103.0,101.0,13.4,1505.2,328.6,-0.7,1.8,2470.89,13.29,0.041,320.9
2022-08-19T03:49:03,42.805,6.029,-0.015,0.001,-0.037,100.0,104.0,101.0,13.4,1505.2,332.8,-0.8,1.8,2470.857,13.29,0.015,273.8
2022-08-19T03:52:03,42.805,6.029,-0.001,0.008,-0.008,102.0,102.0,100.0,13.4,1505.2,320.5,-0.7,1.9,2470.874,13.29,0.008,352.9
2022-08-19T03:55:03,42.805,6.029,-0.006,0.011,-0.013,102.0,102.0,101.0,13.4,1505.2,318.3,-0.8,1.8,2470.857,13.29,0.012,331.4
2022-08-19T03:58:03,42.805,6.029,0.008,0.022,0.022,102.0,102.0,101.0,13.3,1505.2,329.6,-0.8,1.8,2470.857,13.29,0.023,20.0
2022-08-19T04:04:03,42.805,6.029,0.006,0.006,0.03,102.0,103.0,100.0,13.4,1505.2,324.3,-0.8,1.9,2470.96,13.29,0.008,45.0
2022-08-19T04:07:03,42.805,6.029,-0.006,0.023,0.01,102.0,102.0,100.0,13.4,1505.2,333.1,-0.8,1.8,2470.939,13.29,0.023,345.4
2022-08-19T04:10:03,42.805,6.029,-0.001,-0.008,-0.005,101.0,101.0,101.0,13.4,1505.2,325.5,-0.8,1.8,2470.93,13.29,0.008,187.1
2022-08-19T04:13:03,42.805,6.029,-0.012,0.006,-0.006,101.0,103.0,101.0,13.4,1505.2,320.4,-0.7,1.8,2470.91,13.29,0.013,296.6
2022-08-19T04:16:03,42.805,6.029,0.0,0.029,0.009,103.0,101.0,101.0,13.4,1505.2,323.3,-0.8,1.9,2470.878,13.29,0.028,0.0
2022-08-19T04:19:03,42.805,6.029,-0.017,0.012,0.007,102.0,101.0,101.0,13.3,1505.2,320.0,-0.8,1.8,2470.883,13.29,0.02,305.2
2022-08-19T04:22:03,42.805,6.029,-0.018,0.02,-0.011,102.0,102.0,100.0,13.4,1505.2,327.9,-0.7,1.8,2470.872,13.29,0.026,318.0
2022-08-19T04:25:03,42.805,6.029,0.013,0.022,-0.019,101.0,104.0,99.0,13.4,1505.2,317.9,-0.8,1.8,2470.905,13.29,0.025,30.6
2022-08-19T04:28:03,42.805,6.029,-0.017,0.015,-0.015,102.0,101.0,101.0,13.4,1505.2,325.1,-0.8,1.8,2470.904,13.29,0.022,311.4
2022-08-19T04:31:03,42.805,6.029,-0.016,0.011,0.011,102.0,101.0,100.0,13.4,1505.2,323.1,-0.7,1.8,2470.883,13.29,0.019,304.5
2022-08-19T04:34:03,42.805,6.029,-0.003,0.017,-0.002,102.0,102.0,100.0,13.3,1505.2,334.2,-0.8,1.8,2470.901,13.29,0.017,350.0
2022-08-19T04:37:03,42.805,6.029,-0.015,0.013,-0.025,102.0,102.0,101.0,13.3,1505.2,317.5,-0.7,1.8,2470.834,13.29,0.019,310.9
2022-08-19T04:40:03,42.805,6.029,-0.001,0.002,-0.022,101.0,102.0,100.0,13.3,1505.2,327.2,-0.8,1.8,2470.895,13.29,0.002,333.4
2022-08-19T04:43:03,42.805,6.029,-0.004,0.046,-0.011,102.0,102.0,101.0,13.3,1505.2,324.2,-0.8,1.8,2470.895,13.29,0.046,355.0
2022-08-19T04:46:03,42.805,6.029,-0.046,0.009,-0.03,104.0,100.0,102.0,13.4,1505.2,321.7,-0.8,1.8,2470.864,13.29,0.046,281.1
2022-08-19T04:49:03,42.805,6.029,0.006,0.006,-0.007,102.0,102.0,101.0,13.4,1505.2,328.3,-0.8,1.8,2470.896,13.29,0.008,45.0
2022-08-19T04:52:03,42.805,6.029,0.003,0.018,-0.006,103.0,102.0,102.0,13.4,1505.2,327.3,-0.8,1.8,2470.882,13.29,0.018,9.5
2022-08-19T04:55:03,42.805,6.029,0.0,0.023,0.028,103.0,102.0,101.0,13.4,1505.2,321.0,-0.8,1.8,2470.917,13.29,0.023,0.0
2022-08-19T04:58:03,42.805,6.029,-0.008,0.01,0.021,101.0,103.0,101.0,13.4,1505.2,332.0,-0.8,1.9,2470.893,13.29,0.012,321.3
2022-08-19T05:04:03,42.805,6.029,-0.016,0.005,-0.013,102.0,102.0,100.0,13.4,1505.2,322.3,-0.8,1.8,2470.896,13.28,0.016,287.4
2022-08-19T05:07:03,42.805,6.029,-0.012,0.026,0.008,103.0,103.0,101.0,13.4,1505.2,326.9,-0.7,1.8,2470.922,13.29,0.028,335.2
2022-08-19T05:10:03,42.805,6.029,-0.017,0.012,0.008,102.0,102.0,101.0,13.4,1505.2,326.4,-0.8,1.8,2470.89,13.29,0.02,305.2
2022-08-19T05:13:03,42.805,6.029,-0.01,0.014,0.026,101.0,101.0,102.0,13.4,1505.2,326.4,-0.7,1.8,2470.916,13.29,0.017,324.5
2022-08-19T05:16:03,42.805,6.029,-0.019,0.009,-0.01,103.0,102.0,100.0,13.4,1505.2,320.8,-0.8,1.8,2470.868,13.29,0.021,295.3
2022-08-19T05:19:03,42.805,6.029,0.002,0.035,0.033,101.0,103.0,101.0,13.4,1505.2,333.7,-0.8,1.8,2470.896,13.29,0.035,3.3
2022-08-19T05:22:03,42.805,6.029,-0.018,0.031,0.021,103.0,102.0,100.0,13.4,1505.2,319.3,-0.8,1.8,2470.889,13.29,0.035,329.9
2022-08-19T05:25:03,42.805,6.029,-0.014,-0.005,-0.041,101.0,104.0,101.0,13.3,1505.2,325.8,-0.8,1.8,2470.937,13.29,0.014,250.4
2022-08-19T05:28:03,42.805,6.029,-0.029,0.009,0.02,103.0,102.0,101.0,13.4,1505.2,324.7,-0.8,1.8,2470.885,13.29,0.03,287.2
2022-08-19T05:31:03,42.805,6.029,0.001,0.023,-0.018,103.0,102.0,100.0,13.4,1505.2,329.1,-0.7,1.8,2470.846,13.29,0.023,2.5
2022-08-19T05:34:03,42.805,6.029,0.006,0.011,0.022,103.0,101.0,101.0,13.3,1505.2,319.1,-0.7,1.8,2470.868,13.29,0.012,28.6
2022-08-19T05:37:03,42.805,6.029,-0.02,0.018,0.013,101.0,101.0,101.0,13.4,1505.2,331.1,-0.7,1.8,2470.843,13.29,0.026,312.0
2022-08-19T05:40:03,42.805,6.029,0.004,0.038,0.016,100.0,103.0,101.0,13.3,1505.2,327.6,-0.8,1.8,2470.867,13.29,0.038,6.0
2022-08-19T05:43:03,42.805,6.029,-0.023,0.015,-0.024,103.0,102.0,99.0,13.4,1505.2,321.2,-0.8,1.8,2470.893,13.29,0.027,303.1
2022-08-19T05:46:03,42.805,6.029,-0.001,0.014,0.005,102.0,102.0,100.0,13.3,1505.2,322.3,-0.8,1.8,2470.841,13.29,0.014,355.9
2022-08-19T05:49:03,42.805,6.029,-0.004,0.01,0.012,102.0,101.0,100.0,13.4,1505.2,330.1,-0.7,1.8,2470.872,13.29,0.01,338.2
2022-08-19T05:52:03,42.805,6.029,-0.007,0.011,-0.003,102.0,101.0,101.0,13.3,1505.2,323.8,-0.8,1.8,2470.9,13.29,0.013,327.5
2022-08-19T05:55:03,42.805,6.029,0.0,0.006,-0.011,102.0,102.0,101.0,13.4,1505.2,331.4,-0.8,1.8,2470.848,13.29,0.006,0.0
2022-08-19T05:58:03,42.805,6.029,-0.026,0.013,0.006,102.0,103.0,101.0,13.4,1505.2,321.9,-0.7,1.8,2470.878,13.29,0.029,296.6
2022-08-19T06:04:03,42.805,6.029,-0.001,0.033,0.024,102.0,102.0,101.0,13.4,1505.2,331.1,-0.8,1.8,2470.89,13.28,0.033,358.3
2022-08-19T06:07:03,42.805,6.029,-0.005,0.023,0.014,102.0,102.0,101.0,13.4,1505.2,328.3,-0.8,1.8,2470.893,13.29,0.023,347.7
2022-08-19T06:10:03,42.805,6.029,-0.018,0.011,-0.007,102.0,102.0,101.0,13.4,1505.2,332.2,-0.8,1.8,2470.86,13.29,0.021,301.4
2022-08-19T06:13:03,42.805,6.029,0.013,0.015,0.018,102.0,103.0,101.0,13.3,1505.2,319.4,-0.8,1.8,2470.882,13.29,0.019,40.9
2022-08-19T06:16:03,42.805,6.029,0.007,0.027,0.023,101.0,103.0,100.0,13.4,1505.2,322.9,-0.7,1.8,2470.902,13.29,0.027,14.5
2022-08-19T06:19:03,42.805,6.029,-0.006,0.015,0.001,101.0,103.0,101.0,13.4,1505.2,329.5,-0.7,1.8,2470.903,13.29,0.016,338.2
2022-08-19T06:22:03,42.805,6.029,-0.028,0.003,0.016,102.0,103.0,101.0,13.3,1505.2,317.2,-0.8,1.8,2470.855,13.29,0.028,276.1
2022-08-19T06:25:03,42.805,6.029,0.008,0.023,-0.007,103.0,101.0,101.0,13.4,1505.2,326.4,-0.8,1.8,2470.861,13.29,0.024,19.2
2022-08-19T06:28:03,42.805,6.029,0.002,0.03,-0.016,103.0,101.0,101.0,13.3,1505.2,328.3,-0.8,1.8,2470.874,13.29,0.03,3.8
2022-08-19T06:31:03,42.805,6.029,-0.011,0.015,0.01,101.0,103.0,101.0,13.4,1505.2,325.1,-0.7,1.8,2470.895,13.29,0.018,323.7
2022-08-19T06:34:03,42.805,6.029,0.009,0.011,-0.001,103.0,101.0,100.0,13.4,1505.2,321.2,-0.8,1.8,2470.856,13.29,0.014,39.3
2022-08-19T06:37:03,42.805,6.029,-0.016,0.004,-0.016,103.0,102.0,99.0,13.4,1505.2,327.4,-0.7,1.8,2470.893,13.29,0.016,284.0
2022-08-19T06:40:03,42.805,6.029,-0.007,0.015,0.0,102.0,102.0,101.0,13.4,1505.2,320.5,-0.8,1.8,2470.866,13.29,0.016,335.0
2022-08-19T06:43:03,42.805,6.029,-0.016,0.036,-0.008,103.0,100.0,100.0,13.3,1505.2,330.8,-0.8,1.8,2470.848,13.29,0.039,336.0
2022-08-19T06:46:03,42.805,6.029,-0.013,0.017,-0.006,102.0,102.0,102.0,13.3,1505.2,327.4,-0.8,1.8,2470.87,13.29,0.021,322.6
2022-08-19T06:49:03,42.805,6.029,0.003,0.026,0.027,102.0,102.0,100.0,13.4,1505.2,332.0,-0.8,1.8,2470.851,13.29,0.026,6.6
2022-08-19T06:52:03,42.805,6.029,-0.012,0.011,0.0,102.0,103.0,100.0,13.4,1505.2,318.7,-0.8,1.8,2470.835,13.29,0.016,312.5
2022-08-19T06:55:03,42.805,6.029,-0.018,0.004,0.015,103.0,102.0,100.0,13.4,1505.2,322.4,-0.8,1.8,2470.876,13.29,0.018,282.5
2022-08-19T06:58:03,42.805,6.029,-0.018,0.019,0.004,103.0,102.0,101.0,13.4,1505.2,330.1,-0.7,1.8,2470.868,13.29,0.026,316.5
2022-08-19T07:04:03,42.805,6.029,-0.021,0.006,-0.002,102.0,103.0,101.0,13.4,1505.2,320.4,-0.7,1.8,2470.891,13.28,0.021,285.9
2022-08-19T07:07:03,42.805,6.029,-0.007,0.019,0.022,101.0,102.0,101.0,13.4,1505.2,320.4,-0.8,1.8,2470.94,13.29,0.02,339.8
2022-08-19T07:10:03,42.805,6.029,-0.031,0.016,-0.031,103.0,102.0,101.0,13.3,1505.2,324.2,-0.8,1.8,2470.889,13.29,0.034,297.3
2022-08-19T07:13:03,42.805,6.029,0.004,0.012,-0.009,102.0,104.0,101.0,13.3,1505.2,332.9,-0.8,1.8,2470.882,13.29,0.012,18.4
2022-08-19T07:16:03,42.805,6.029,-0.031,0.001,-0.02,103.0,102.0,100.0,13.3,1505.2,329.7,-0.8,1.8,2470.864,13.29,0.031,271.8
2022-08-19T07:19:03,42.805,6.029,0.005,0.004,0.008,102.0,103.0,102.0,13.4,1505.2,328.3,-0.8,1.8,2470.876,13.29,0.006,51.3
2022-08-19T07:22:03,42.805,6.029,0.013,0.003,-0.008,103.0,103.0,99.0,13.3,1505.2,331.4,-0.7,1.8,2470.858,13.29,0.013,77.0
2022-08-19T07:25:03,42.805,6.029,-0.031,0.02,-0.022,103.0,102.0,102.0,13.4,1505.2,328.1,-0.8,1.8,2470.84,13.29,0.036,302.8
2022-08-19T07:28:03,42.805,6.029,-0.011,0.01,-0.008,103.0,102.0,101.0,13.3,1505.2,327.4,-0.8,1.8,2470.83,13.29,0.014,312.3
2022-08-19T07:31:03,42.805,6.029,0.004,0.011,-0.047,102.0,104.0,101.0,13.4,1505.2,327.2,-0.7,1.8,2470.867,13.29,0.011,20.0
2022-08-19T07:34:03,42.805,6.029,-0.008,0.019,0.008,102.0,103.0,102.0,13.4,1505.2,323.0,-0.8,1.8,2470.848,13.29,0.02,337.2
2022-08-19T07:37:03,42.805,6.029,-0.007,0.01,-0.013,103.0,103.0,100.0,13.3,1505.2,332.5,-0.8,1.8,2470.865,13.29,0.012,325.0
2022-08-19T07:40:03,42.805,6.029,0.012,0.018,0.013,103.0,102.0,101.0,13.4,1505.2,333.7,-0.8,1.8,2470.881,13.29,0.021,33.7
2022-08-19T07:43:03,42.805,6.029,-0.007,0.01,-0.033,102.0,102.0,100.0,13.4,1505.2,320.5,-0.8,1.8,2470.884,13.29,0.012,325.0
2022-08-19T07:46:03,42.805,6.029,-0.018,0.027,-0.007,103.0,102.0,101.0,13.4,1505.2,328.8,-0.8,1.8,2470.877,13.29,0.032,326.3
2022-08-19T07:49:03,42.805,6.029,-0.04,0.033,0.005,102.0,102.0,101.0,13.3,1505.2,317.6,-0.8,1.8,2470.859,13.29,0.051,309.5
2022-08-19T07:52:03,42.805,6.029,-0.006,0.0,-0.004,102.0,103.0,101.0,13.4,1505.2,326.9,-0.7,1.8,2470.886,13.29,0.006,270.0
2022-08-19T07:55:03,42.805,6.029,-0.007,0.014,0.0,103.0,102.0,101.0,13.4,1505.2,330.6,-0.7,1.8,2470.865,13.29,0.015,333.4
2022-08-19T07:58:03,42.805,6.029,-0.013,0.009,-0.038,103.0,103.0,101.0,13.4,1505.2,325.9,-0.8,1.8,2470.857,13.29,0.015,304.7
2022-08-19T08:04:03,42.805,6.029,0.017,0.017,0.041,103.0,102.0,102.0,13.4,1505.2,322.8,-0.8,1.8,2470.91,13.29,0.024,45.0
2022-08-19T08:07:03,42.805,6.029,-0.023,0.015,-0.013,102.0,103.0,101.0,13.3,1505.2,322.8,-0.8,1.8,2470.858,13.29,0.027,303.1
2022-08-19T08:10:03,42.805,6.029,-0.008,-0.016,0.005,104.0,104.0,101.0,13.4,1505.2,331.5,-0.8,1.8,2470.865,13.29,0.017,206.6
2022-08-19T08:13:03,42.805,6.029,-0.032,0.007,-0.016,104.0,103.0,102.0,13.4,1505.2,321.2,-0.7,1.8,2470.901,13.29,0.032,282.3
2022-08-19T08:16:03,42.805,6.029,-0.008,0.008,0.022,104.0,103.0,102.0,13.4,1505.2,323.8,-0.8,1.8,2470.862,13.29,0.011,315.0
2022-08-19T08:19:03,42.805,6.029,0.0,0.014,0.001,103.0,104.0,102.0,13.4,1505.2,323.2,-0.8,1.8,2470.894,13.29,0.014,0.0
2022-08-19T08:22:03,42.805,6.029,-0.014,0.013,0.0,105.0,104.0,102.0,13.4,1505.2,333.9,-0.8,1.8,2470.877,13.29,0.019,312.9
2022-08-19T08:25:03,42.805,6.029,-0.017,-0.003,-0.012,105.0,103.0,103.0,13.4,1505.2,320.7,-0.7,1.8,2470.824,13.29,0.017,260.0
2022-08-19T08:28:03,42.805,6.029,0.008,0.002,-0.025,105.0,105.0,101.0,13.4,1505.2,327.5,-0.7,1.8,2470.863,13.29,0.008,76.0
2022-08-19T08:31:03,42.805,6.029,0.007,0.033,0.002,105.0,104.0,103.0,13.4,1505.2,324.9,-0.7,1.8,2470.859,13.29,0.033,12.0
2022-08-19T08:34:03,42.805,6.029,0.011,0.023,-0.003,106.0,104.0,103.0,13.4,1505.2,322.5,-0.7,1.8,2470.835,13.29,0.025,25.6
2022-08-19T08:37:03,42.805,6.029,0.012,0.008,0.014,105.0,104.0,103.0,13.4,1505.2,326.9,-0.8,1.8,2470.881,13.29,0.014,56.3
2022-08-19T08:40:03,42.805,6.029,-0.009,0.001,-0.036,104.0,104.0,102.0,13.4,1505.2,322.0,-0.8,1.8,2470.902,13.29,0.009,276.3
2022-08-19T08:43:03,42.805,6.029,0.021,0.001,0.001,104.0,105.0,102.0,13.4,1505.2,329.1,-0.8,1.8,2470.852,13.29,0.021,87.3
2022-08-19T08:46:03,42.805,6.029,0.006,0.009,0.025,105.0,104.0,102.0,13.4,1505.2,321.5,-0.7,1.8,2470.903,13.29,0.01,33.7
2022-08-19T08:49:03,42.805,6.029,0.003,-0.007,0.006,104.0,104.0,102.0,13.4,1505.2,321.8,-0.7,1.8,2470.907,13.29,0.007,156.8
2022-08-19T08:52:03,42.805,6.029,-0.002,0.01,-0.004,104.0,104.0,102.0,13.4,1505.2,332.0,-0.7,1.8,2470.867,13.29,0.01,348.7
2022-08-19T08:55:03,42.805,6.029,-0.026,-0.005,-0.03,105.0,104.0,102.0,13.3,1505.2,318.4,-0.7,1.8,2470.859,13.29,0.026,259.1
2022-08-19T08:58:03,42.805,6.029,0.004,-0.004,0.002,105.0,105.0,102.0,13.4,1505.2,320.9,-0.8,1.8,2470.886,13.29,0.005,135.0
2022-08-19T09:04:03,42.805,6.029,-0.002,-0.008,-0.015,104.0,104.0,101.0,13.4,1505.2,333.4,-0.8,1.8,2470.923,13.29,0.008,194.0
2022-08-19T09:07:03,42.805,6.029,0.008,0.004,-0.007,104.0,105.0,102.0,13.4,1505.2,332.9,-0.8,1.8,2470.908,13.29,0.008,63.4
2022-08-19T09:10:03,42.805,6.029,0.0,0.006,0.002,104.0,103.0,102.0,13.4,1505.2,330.9,-0.7,1.8,2470.906,13.29,0.006,0.0
2022-08-19T09:13:03,42.805,6.029,-0.008,0.016,0.012,105.0,105.0,102.0,13.3,1505.2,327.7,-0.8,1.8,2470.946,13.29,0.017,333.4
2022-08-19T09:16:03,42.805,6.029,0.008,-0.006,-0.004,104.0,105.0,102.0,13.4,1505.2,331.1,-0.8,1.8,2470.913,13.29,0.01,126.9
2022-08-19T09:19:03,42.805,6.029,-0.01,-0.005,-0.005,105.0,105.0,102.0,13.4,1505.2,324.9,-0.7,1.8,2470.897,13.29,0.011,243.4
2022-08-19T09:22:03,42.805,6.029,0.007,0.005,-0.019,105.0,104.0,103.0,13.4,1505.2,320.0,-0.8,1.8,2470.891,13.29,0.008,54.5
2022-08-19T09:25:03,42.805,6.029,0.0,0.01,0.002,106.0,105.0,102.0,13.4,1505.2,329.2,-0.8,1.8,2470.845,13.29,0.01,0.0
2022-08-19T09:28:03,42.805,6.029,-0.007,-0.016,0.004,104.0,105.0,102.0,13.3,1505.2,328.3,-0.8,1.8,2470.877,13.29,0.017,203.6
2022-08-19T09:31:03,42.805,6.029,-0.021,0.008,-0.039,105.0,104.0,102.0,13.4,1505.2,325.2,-0.7,1.8,2470.908,13.29,0.022,290.9
2022-08-19T09:34:03,42.805,6.029,-0.013,0.018,-0.014,105.0,105.0,101.0,13.3,1505.2,322.9,-0.7,1.8,2470.884,13.29,0.022,324.2
2022-08-19T09:37:03,42.805,6.029,-0.017,-0.006,-0.012,104.0,104.0,102.0,13.3,1505.2,324.0,-0.8,1.8,2470.879,13.29,0.018,250.6
2022-08-19T09:40:03,42.805,6.029,0.001,0.012,0.0,104.0,104.0,103.0,13.3,1505.2,328.3,-0.8,1.8,2470.87,13.29,0.012,4.8
2022-08-19T09:43:03,42.805,6.029,0.0,0.019,0.017,104.0,105.0,102.0,13.3,1505.2,318.8,-0.8,1.8,2470.905,13.29,0.019,0.0
2022-08-19T09:46:03,42.805,6.029,-0.016,0.024,0.024,105.0,104.0,103.0,13.4,1505.2,328.3,-0.8,1.8,2470.882,13.29,0.028,326.3
2022-08-19T09:49:03,42.805,6.029,-0.011,-0.007,-0.038,104.0,106.0,102.0,13.4,1505.2,328.3,-0.7,1.8,2470.887,13.29,0.013,237.5
2022-08-19T09:52:03,42.805,6.029,-0.002,-0.012,0.001,105.0,103.0,103.0,13.4,1505.2,333.9,-0.8,1.8,2470.888,13.29,0.012,189.5
2022-08-19T09:55:03,42.805,6.029,0.008,0.012,0.0,104.0,105.0,101.0,13.4,1505.2,318.7,-0.8,1.8,2470.932,13.29,0.014,33.7
2022-08-19T09:58:03,42.805,6.029,0.007,0.005,0.003,104.0,106.0,102.0,13.4,1505.2,325.7,-0.8,1.8,2470.913,13.29,0.008,54.5